Radiation Dose at Monitoring Post of Fukushima Daini Nuclear Power Station
Date,Time,MP-1(microSv/h),MP-2(microSv/h),MP-3(microSv/h),MP-4(microSv/h),MP-5(microSv/h),MP-6(microSv/h),MP-7(microSv/h),Wind Direction,Wind Velocity(m/s),Rain
2014/09/07,00:00,0.657,0.463,0.694,0.635,0.619,0.284,0.249,west-northwest,2.8,Yes
2014/09/07,00:10,0.655,0.463,0.693,0.633,0.620,0.286,0.248,west-northwest,1.9,Yes
2014/09/07,00:20,0.655,0.463,0.693,0.633,0.617,0.285,0.250,west-northwest,1.6,Yes
2014/09/07,00:30,0.654,0.464,0.691,0.634,0.619,0.285,0.250,west,2.5,Yes
2014/09/07,00:40,0.655,0.461,0.692,0.632,0.618,0.285,0.247,west-northwest,3.3,Yes
2014/09/07,00:50,0.653,0.461,0.691,0.630,0.618,0.284,0.249,northwest,4.0,Yes
2014/09/07,01:00,0.653,0.459,0.689,0.630,0.617,0.284,0.247,northwest,4.1,Yes
2014/09/07,01:10,0.650,0.459,0.689,0.623,0.615,0.283,0.248,west-northwest,5.6,Yes
2014/09/07,01:20,0.650,0.458,0.687,0.623,0.615,0.283,0.246,west-northwest,5.9,Yes
2014/09/07,01:30,0.650,0.459,0.685,0.623,0.614,0.283,0.245,northwest,4.7,Yes
2014/09/07,01:40,0.646,0.457,0.686,0.624,0.616,0.281,0.247,northwest,4.6,Yes
2014/09/07,01:50,0.648,0.456,0.685,0.623,0.616,0.282,0.243,west-northwest,4.8,Yes
2014/09/07,02:00,0.647,0.456,0.685,0.623,0.614,0.280,0.247,west-northwest,5.0,Yes
2014/09/07,02:10,0.647,0.455,0.679,0.622,0.612,0.282,0.245,west-northwest,5.3,Yes
2014/09/07,02:20,0.642,0.453,0.676,0.616,0.609,0.281,0.244,west,7.5,Yes
2014/09/07,02:30,0.637,0.451,0.671,0.611,0.605,0.278,0.243,north-northwest,6.9,Yes
2014/09/07,02:40,0.634,0.448,0.666,0.610,0.605,0.281,0.243,west-southwest,6.1,Yes
2014/09/07,02:50,0.631,0.447,0.662,0.600,0.604,0.278,0.243,northwest,5.8,Yes
2014/09/07,03:00,0.628,0.445,0.658,0.597,0.605,0.281,0.245,west-northwest,5.4,Yes
2014/09/07,03:10,0.627,0.448,0.662,0.602,0.610,0.280,0.248,northwest,5.8,Yes
2014/09/07,03:20,0.628,0.449,0.664,0.602,0.612,0.280,0.247,south,0.5,Yes
2014/09/07,03:30,0.629,0.449,0.661,0.600,0.611,0.281,0.247,south-southwest,2.6,Yes
2014/09/07,03:40,0.629,0.449,0.663,0.598,0.611,0.279,0.245,north-northwest,4.5,Yes
2014/09/07,03:50,0.631,0.448,0.665,0.603,0.609,0.281,0.247,north-northwest,4.5,Yes
2014/09/07,04:00,0.632,0.447,0.665,0.604,0.611,0.278,0.246,west,7.0,Yes
2014/09/07,04:10,0.631,0.448,0.665,0.607,0.612,0.279,0.245,northwest,3.6,Yes
2014/09/07,04:20,0.631,0.446,0.663,0.604,0.611,0.276,0.244,northwest,4.6,Yes
2014/09/07,04:30,0.629,0.445,0.662,0.605,0.610,0.278,0.243,west-northwest,5.3,Yes
2014/09/07,04:40,0.630,0.445,0.664,0.601,0.609,0.276,0.241,north-northwest,3.6,Yes
2014/09/07,04:50,0.630,0.444,0.663,0.602,0.608,0.275,0.242,north-northwest,5.7,Yes
2014/09/07,05:00,0.628,0.446,0.663,0.602,0.608,0.274,0.240,north-northwest,6.2,Yes
2014/09/07,05:10,0.629,0.443,0.661,0.602,0.605,0.273,0.240,north-northwest,6.8,Yes
2014/09/07,05:20,0.626,0.443,0.662,0.601,0.607,0.275,0.240,northwest,7.7,Yes
2014/09/07,05:30,0.628,0.442,0.659,0.602,0.606,0.272,0.239,north-northwest,8.3,Yes
2014/09/07,05:40,0.626,0.442,0.658,0.598,0.605,0.275,0.238,north-northwest,7.7,Yes
2014/09/07,05:50,0.626,0.440,0.657,0.598,0.604,0.275,0.238,north-northwest,7.3,Yes
2014/09/07,06:00,0.624,0.441,0.658,0.598,0.608,0.275,0.239,northwest,6.4,Yes
2014/09/07,06:10,0.627,0.442,0.659,0.598,0.607,0.276,0.241,northwest,6.1,Yes
2014/09/07,06:20,0.627,0.444,0.659,0.600,0.610,0.275,0.240,northwest,6.0,Yes
2014/09/07,06:30,0.627,0.445,0.660,0.601,0.609,0.277,0.241,northwest,5.8,Yes
2014/09/07,06:40,0.628,0.443,0.660,0.603,0.608,0.275,0.241,north-northwest,6.6,Yes
2014/09/07,06:50,0.629,0.444,0.661,0.602,0.608,0.275,0.241,northwest,7.0,Yes
2014/09/07,07:00,0.627,0.444,0.661,0.602,0.608,0.274,0.240,north-northwest,7.3,Yes
2014/09/07,07:10,0.626,0.442,0.660,0.600,0.605,0.274,0.238,north-northwest,6.1,Yes
2014/09/07,07:20,0.626,0.442,0.659,0.599,0.606,0.273,0.238,north-northwest,6.4,Yes
2014/09/07,07:30,0.627,0.440,0.656,0.598,0.606,0.274,0.238,northwest,5.7,Yes
2014/09/07,07:40,0.626,0.441,0.657,0.600,0.606,0.274,0.238,north-northwest,6.1,Yes
2014/09/07,07:50,0.626,0.442,0.660,0.600,0.606,0.275,0.239,north-northwest,5.7,Yes
2014/09/07,08:00,0.627,0.442,0.660,0.597,0.606,0.276,0.239,north,5.6,Yes
2014/09/07,08:10,0.626,0.442,0.659,0.598,0.609,0.274,0.239,north-northwest,5.3,Yes
2014/09/07,08:20,0.625,0.441,0.659,0.598,0.606,0.275,0.239,north-northwest,4.9,Yes
2014/09/07,08:30,0.627,0.443,0.661,0.599,0.607,0.274,0.239,north-northwest,5.3,Yes
2014/09/07,08:40,0.626,0.441,0.660,0.599,0.608,0.276,0.240,north-northwest,5.6,Yes
2014/09/07,08:50,0.626,0.440,0.658,0.600,0.607,0.276,0.239,north-northwest,6.0,Yes
2014/09/07,09:00,0.625,0.442,0.657,0.600,0.607,0.275,0.240,north-northwest,5.3,Yes
2014/09/07,09:10,0.626,0.443,0.659,0.599,0.608,0.276,0.238,north-northwest,4.6,Yes
2014/09/07,09:20,0.628,0.442,0.660,0.600,0.608,0.273,0.240,north-northwest,5.1,Yes
2014/09/07,09:30,0.627,0.444,0.660,0.601,0.608,0.277,0.239,north,5.1,Yes
2014/09/07,09:40,0.627,0.443,0.659,0.601,0.608,0.275,0.241,north,4.7,Yes
2014/09/07,09:50,0.627,0.442,0.660,0.601,0.608,0.276,0.238,north-northwest,4.6,No
2014/09/07,10:00,0.628,0.441,0.660,0.600,0.608,0.274,0.239,north-northwest,4.0,No
2014/09/07,10:10,0.625,0.442,0.659,0.602,0.605,0.271,0.237,north,4.6,No
2014/09/07,10:20,0.625,0.440,0.660,0.603,0.606,0.271,0.236,north,5.3,No
2014/09/07,10:30,0.624,0.439,0.660,0.600,0.604,0.269,0.234,north,4.3,No
2014/09/07,10:40,0.625,0.439,0.660,0.599,0.607,0.268,0.233,north,4.3,No
2014/09/07,10:50,0.623,0.436,0.661,0.600,0.605,0.267,0.234,north,4.5,No
2014/09/07,11:00,0.623,0.438,0.658,0.599,0.605,0.267,0.232,north,3.3,No
2014/09/07,11:10,0.623,0.438,0.660,0.600,0.603,0.267,0.230,north,2.8,Yes
2014/09/07,11:20,0.622,0.437,0.661,0.599,0.603,0.267,0.233,north,3.1,Yes
2014/09/07,11:30,0.625,0.436,0.660,0.600,0.603,0.267,0.229,north,4.0,No
2014/09/07,11:40,0.623,0.435,0.660,0.597,0.605,0.266,0.232,north-northwest,3.9,No
2014/09/07,11:50,0.625,0.437,0.659,0.598,0.603,0.266,0.232,north,3.3,No
2014/09/07,12:00,0.626,0.435,0.660,0.599,0.603,0.267,0.231,north-northwest,3.2,No
2014/09/07,12:10,0.625,0.436,0.659,0.598,0.604,0.266,0.232,north,3.4,No
2014/09/07,12:20,0.625,0.437,0.661,0.602,0.604,0.268,0.230,north,3.6,No
2014/09/07,12:30,0.627,0.437,0.660,0.602,0.605,0.265,0.228,north,2.9,No
2014/09/07,12:40,0.626,0.437,0.661,0.601,0.605,0.266,0.231,north,2.6,No
2014/09/07,12:50,0.625,0.439,0.661,0.602,0.603,0.266,0.231,north,3.3,No
2014/09/07,13:00,0.626,0.440,0.662,0.603,0.602,0.267,0.231,north-northeast,4.9,No
2014/09/07,13:10,0.627,0.440,0.662,0.604,0.605,0.267,0.230,north,4.7,No
2014/09/07,13:20,0.627,0.440,0.662,0.606,0.606,0.267,0.232,north-northeast,4.2,No
2014/09/07,13:30,0.629,0.439,0.667,0.605,0.605,0.266,0.231,northeast,4.7,No
2014/09/07,13:40,0.629,0.440,0.664,0.607,0.605,0.269,0.230,northeast,5.0,No
2014/09/07,13:50,0.630,0.440,0.666,0.610,0.608,0.269,0.229,northeast,4.6,No
2014/09/07,14:00,0.630,0.441,0.668,0.612,0.608,0.268,0.229,north-northeast,4.7,No
2014/09/07,14:10,0.634,0.444,0.670,0.614,0.609,0.268,0.228,northeast,4.6,No
2014/09/07,14:20,0.633,0.442,0.669,0.617,0.608,0.268,0.230,northeast,4.8,No
2014/09/07,14:30,0.634,0.444,0.670,0.616,0.610,0.268,0.230,north-northeast,4.3,No
2014/09/07,14:40,0.635,0.444,0.669,0.616,0.607,0.267,0.231,north-northeast,3.1,No
2014/09/07,14:50,0.635,0.443,0.671,0.617,0.609,0.269,0.234,north-northeast,3.1,No
2014/09/07,15:00,0.635,0.442,0.667,0.617,0.606,0.269,0.232,northeast,3.6,No
2014/09/07,15:10,0.635,0.443,0.667,0.616,0.608,0.268,0.230,northeast,3.1,No
2014/09/07,15:20,0.635,0.443,0.668,0.616,0.606,0.268,0.233,northeast,2.9,No
2014/09/07,15:30,0.634,0.442,0.667,0.616,0.606,0.271,0.234,northeast,2.9,No
2014/09/07,15:40,0.637,0.442,0.666,0.614,0.607,0.270,0.231,northeast,2.8,No
2014/09/07,15:50,0.635,0.445,0.668,0.614,0.607,0.269,0.233,northeast,2.2,No
2014/09/07,16:00,0.636,0.443,0.668,0.614,0.609,0.268,0.234,east-northeast,2.3,No
2014/09/07,16:10,0.635,0.444,0.666,0.615,0.608,0.270,0.233,northeast,1.9,No
2014/09/07,16:20,0.635,0.443,0.667,0.616,0.608,0.270,0.233,northeast,2.3,No
2014/09/07,16:30,0.633,0.444,0.666,0.616,0.608,0.271,0.232,east-northeast,1.4,No
2014/09/07,16:40,0.636,0.443,0.667,0.616,0.608,0.270,0.233,northeast,1.3,No
2014/09/07,16:50,0.635,0.444,0.666,0.616,0.605,0.269,0.234,east-northeast,1.4,No
2014/09/07,17:00,0.635,0.443,0.667,0.613,0.605,0.270,0.232,east,0.8,No
2014/09/07,17:10,0.633,0.445,0.666,0.613,0.606,0.270,0.235,east,1.1,No
2014/09/07,17:20,0.634,0.444,0.668,0.612,0.607,0.268,0.234,east-northeast,1.0,No
2014/09/07,17:30,0.634,0.444,0.668,0.612,0.606,0.271,0.232,east,0.7,No
2014/09/07,17:40,0.635,0.444,0.667,0.613,0.607,0.270,0.235,east-northeast,0.6,No
2014/09/07,17:50,0.634,0.443,0.667,0.613,0.607,0.269,0.234,east-southeast,0.5,No
2014/09/07,18:00,0.635,0.444,0.667,0.615,0.608,0.271,0.233,east-southeast,0.7,No
2014/09/07,18:10,0.636,0.443,0.668,0.614,0.604,0.269,0.234,east,0.5,No
2014/09/07,18:20,0.635,0.444,0.668,0.613,0.605,0.270,0.233,-,CALM,No
2014/09/07,18:30,0.633,0.443,0.667,0.609,0.606,0.270,0.234,-,CALM,No
2014/09/07,18:40,0.632,0.443,0.667,0.610,0.605,0.271,0.232,-,CALM,No
2014/09/07,18:50,0.633,0.443,0.666,0.611,0.605,0.271,0.234,-,CALM,No
2014/09/07,19:00,0.633,0.443,0.668,0.610,0.605,0.270,0.234,south,1.0,No
2014/09/07,19:10,0.631,0.440,0.666,0.607,0.606,0.271,0.235,-,CALM,No
2014/09/07,19:20,0.628,0.440,0.666,0.607,0.605,0.269,0.234,-,CALM,No
2014/09/07,19:30,0.630,0.441,0.665,0.609,0.603,0.271,0.236,south-southwest,0.7,No
2014/09/07,19:40,0.631,0.440,0.665,0.607,0.604,0.271,0.233,south-southwest,1.0,No
2014/09/07,19:50,0.632,0.441,0.667,0.606,0.606,0.271,0.235,south,1.1,No
2014/09/07,20:00,0.630,0.441,0.666,0.605,0.603,0.271,0.234,southwest,0.9,No
2014/09/07,20:10,0.629,0.442,0.668,0.608,0.604,0.271,0.235,south-southwest,1.5,No
2014/09/07,20:20,0.629,0.441,0.666,0.606,0.606,0.271,0.233,south-southwest,1.7,No
2014/09/07,20:30,0.630,0.441,0.665,0.604,0.602,0.271,0.235,southwest,1.9,No
2014/09/07,20:40,0.630,0.441,0.663,0.605,0.602,0.271,0.234,southwest,1.9,No
2014/09/07,20:50,0.630,0.440,0.664,0.605,0.604,0.270,0.236,southwest,1.6,No
2014/09/07,21:00,0.630,0.441,0.663,0.607,0.605,0.271,0.233,south-southwest,1.4,No
2014/09/07,21:10,0.629,0.441,0.665,0.604,0.604,0.271,0.235,south-southwest,1.5,No
2014/09/07,21:20,0.629,0.441,0.663,0.603,0.606,0.272,0.235,south,1.4,No
2014/09/07,21:30,0.629,0.443,0.666,0.605,0.605,0.272,0.235,south-southwest,1.4,No
2014/09/07,21:40,0.630,0.441,0.664,0.603,0.604,0.272,0.234,south-southwest,2.0,No
2014/09/07,21:50,0.630,0.440,0.666,0.606,0.606,0.272,0.236,south-southwest,1.9,No
2014/09/07,22:00,0.629,0.442,0.666,0.604,0.604,0.272,0.234,south-southwest,1.6,No
2014/09/07,22:10,0.631,0.441,0.666,0.606,0.604,0.272,0.236,southwest,1.6,No
2014/09/07,22:20,0.631,0.442,0.664,0.605,0.605,0.273,0.234,south-southwest,2.0,No
2014/09/07,22:30,0.631,0.441,0.666,0.605,0.605,0.272,0.235,south-southwest,1.6,No
2014/09/07,22:40,0.630,0.441,0.665,0.605,0.605,0.273,0.235,-,CALM,No
2014/09/07,22:50,0.631,0.440,0.666,0.605,0.604,0.270,0.236,south-southwest,0.7,No
2014/09/07,23:00,0.632,0.441,0.666,0.603,0.606,0.271,0.235,south-southeast,1.0,No
2014/09/07,23:10,0.631,0.441,0.664,0.605,0.605,0.271,0.235,south-southeast,1.1,No
2014/09/07,23:20,0.630,0.440,0.665,0.603,0.604,0.272,0.235,south,0.9,No
2014/09/07,23:30,0.633,0.441,0.665,0.605,0.603,0.271,0.234,south,0.6,No
2014/09/07,23:40,0.630,0.443,0.664,0.605,0.604,0.273,0.235,south-southwest,0.9,No
2014/09/07,23:50,0.631,0.441,0.665,0.605,0.605,0.272,0.235,south-southwest,1.0,No
